Volver al catálogo

FENGYUN 1C DEB

ActivoSSO
NORAD 30510·DEBRIS·🇨🇳 China

Lanzado May 10, 1999 desde Taiyuan Satellite Launch Center

Loading…

Próximos Pases (próximas 24 horas)

TLE

ActualizadoSource: Space-Track

Época: Sep 14, 2026, 01:20 UTC

1 30510U 99025AHY 26257.05616071  .00001457  00000-0  76734-3 0  9999
2 30510  99.2331 283.0781 0078947 114.2253 272.9825 14.14042318  4614

Sigue FENGYUN 1C DEB en tiempo real con AllMySat

Download on the App Store